Weather History for KLCH - May, 2012

Change the Weather History Date:

Thursday, May 10, 2012

  Actual Average Record
Temperature  
Mean Temperature 73 °F 74 °F  
Max Temperature 82 °F 83 °F 93 °F (2002)
Min Temperature 64 °F 65 °F 48 °F (1923)
Degree Days  
Heating Degree Days 0 0  
Month to date heating degree days 0 0  
Since 1 July heating degree days 954 1489  
Cooling Degree Days 8 9  
Month to date cooling degree days 128 82  
Year to date cooling degree days 622 290  
Growing Degree Days 23 (Base 50)    
Moisture  
Dew Point 60 °F    
Average Humidity 65    
Maximum Humidity 87    
Minimum Humidity 42    
Precipitation  
Precipitation 0.00 in 0.15 in 4.88 in (2013)
Month to date precipitation 2.82 1.48  
Year to date precipitation 29.91 17.16  
Snow  
Snow 0.00 in 0.00 in 0.00 in ()
Month to date snowfall 0.0 0.0  
Since 1 July snowfall 0.0 0.1  
Snow Depth 0.00 in    
Sea Level Pressure  
Sea Level Pressure 29.94 in    
Wind  
Wind Speed 8 mph (East)    
Max Wind Speed 15 mph    
Max Gust Speed 23 mph    
Visibility 9 miles    
Events      
T = Trace of Precipitation, MM = Missing Value Source: NWS Daily Summary

Daily Weather History Graph

Daily Weather History Graph

Search for Another Location

Airport or City:

Trip Planner

Search our weather history database for the weather conditions in past years. The results will help you decide how hot, cold, wet, or windy it might be!

Date:

Astronomy

May. 10, 2012 Rise Set
Actual Time 6:22 AM CDT 7:56 PM CDT
Civil Twilight 5:56 AM CDT 8:22 PM CDT
Nautical Twilight 5:25 AM CDT 8:53 PM CDT
Astronomical Twilight 4:52 AM CDT 9:26 PM CDT
Moon No Moon Rise 10:47 AM CDT (5/10)
Length of Visible Light 14h 26m
Length of Day
13h 34m
Waning Gibbous, 73% of the Moon is Illuminated
May 10
Waning Gibbous
May 12
Last Quarter
May 20
New
May 28
First Quarter
Jun 4
Full

Hourly Weather History & Observations

Time (CDT) Temp. Heat Index Dew Point Humidity Pressure Visibility Wind Dir Wind Speed Gust Speed Precip Events Conditions
12:53 AM 69.1 °F - 64.9 °F 87% 29.96 in 7.0 mi NE 5.8 mph - N/A   Clear
1:53 AM 66.9 °F - 63.0 °F 87% 29.96 in 8.0 mi NE 4.6 mph - N/A   Clear
2:53 AM 66.2 °F - 62.6 °F 88% 29.92 in 9.0 mi NE 5.8 mph - N/A   Clear
3:53 AM 64.9 °F - 61.0 °F 87% 29.93 in 9.0 mi ENE 3.5 mph - N/A   Clear
4:53 AM 64.9 °F - 61.0 °F 87% 29.93 in 10.0 mi East 4.6 mph - N/A   Clear
5:53 AM 64.0 °F - 61.0 °F 90% 29.94 in 9.0 mi ENE 5.8 mph - N/A   Clear
6:53 AM 64.0 °F - 61.0 °F 90% 29.95 in 7.0 mi ENE 6.9 mph - N/A   Clear
7:53 AM 68.0 °F - 61.0 °F 78% 29.99 in 10.0 mi ESE 5.8 mph - N/A   Clear
8:53 AM 72.0 °F - 62.1 °F 71% 30.00 in 10.0 mi ESE 6.9 mph - N/A   Clear
9:53 AM 75.9 °F - 57.9 °F 54% 30.00 in 10.0 mi ESE 15.0 mph 19.6 mph N/A   Clear
10:53 AM 78.1 °F - 54.0 °F 43% 30.00 in 10.0 mi ESE 13.8 mph - N/A   Clear
11:53 AM 80.1 °F 80.1 °F 55.0 °F 42% 29.99 in 10.0 mi ESE 13.8 mph 17.3 mph N/A   Clear
12:53 PM 80.1 °F 80.1 °F 55.0 °F 42% 29.96 in 10.0 mi ENE 12.7 mph - N/A   Clear
1:53 PM 81.0 °F 80.7 °F 55.0 °F 41% 29.94 in 10.0 mi East 10.4 mph - N/A   Clear
2:53 PM 82.0 °F 82.0 °F 57.9 °F 44% 29.92 in 10.0 mi East 10.4 mph 23.0 mph N/A   Clear
3:53 PM 82.0 °F 82.0 °F 57.9 °F 44% 29.91 in 10.0 mi East 12.7 mph 17.3 mph N/A   Clear
4:53 PM 81.0 °F 81.3 °F 59.0 °F 47% 29.90 in 10.0 mi SE 8.1 mph - N/A   Clear
5:53 PM 80.1 °F 80.7 °F 59.0 °F 48% 29.90 in 10.0 mi East 6.9 mph - N/A   Clear
6:53 PM 79.0 °F - 59.0 °F 50% 29.89 in 10.0 mi East 5.8 mph - N/A   Mostly Cloudy
7:53 PM 75.9 °F - 62.1 °F 62% 29.90 in 10.0 mi ESE 4.6 mph - N/A   Clear
8:53 PM 73.9 °F - 64.0 °F 71% 29.91 in 10.0 mi Calm Calm - N/A   Partly Cloudy
9:53 PM 72.0 °F - 66.0 °F 81% 29.91 in 10.0 mi ESE 4.6 mph - N/A   Clear
10:53 PM 73.0 °F - 66.0 °F 79% 29.91 in 10.0 mi ESE 8.1 mph - N/A   Clear
11:53 PM 72.0 °F - 66.9 °F 84% 29.90 in 10.0 mi East 6.9 mph - N/A   Clear